| time (UTC) | temp F | wind direction | speed MPH | gust MPH | rain 1hr in | rain 24hr in | rain mn in | humidity % | barometer mb |
| 20260902110503 | 71 | 0 | 0.0 | 0.0 | 0.00 | 0.00 | 0.00 | 92 | 1013.8 |
| 20260902110005 | 71 | 0 | 0.0 | 0.0 | 0.00 | 0.00 | 0.00 | 93 | 1013.8 |
| 20260902105503 | 71 | 0 | 0.0 | 0.0 | 0.00 | 0.00 | 0.00 | 92 | 1013.7 |
| 20260902105003 | 71 | 0 | 0.0 | 0.0 | 0.00 | 0.00 | 0.00 | 92 | 1013.7 |
| 20260902104503 | 71 | 0 | 0.0 | 0.0 | 0.00 | 0.00 | 0.00 | 92 | 1013.6 |
| 20260902104024 | 71 | 0 | 0.0 | 0.0 | 0.00 | 0.00 | 0.00 | 92 | 1013.7 |
| 20260902103524 | 71 | 0 | 0.0 | 0.0 | 0.00 | 0.00 | 0.00 | 92 | 1013.6 |
| 20260902103003 | 71 | 0 | 0.0 | 0.0 | 0.00 | 0.00 | 0.00 | 92 | 1013.8 |
| 20260902102503 | 71 | 0 | 0.0 | 0.0 | 0.00 | 0.00 | 0.00 | 92 | 1014.0 |
| 20260902102003 | 71 | 0 | 0.0 | 0.0 | 0.00 | 0.00 | 0.00 | 92 | 1013.7 |
| 20260902101503 | 71 | 0 | 0.0 | 0.0 | 0.00 | 0.00 | 0.00 | 92 | 1013.7 |
| 20260902101003 | 71 | 0 | 0.0 | 0.0 | 0.00 | 0.00 | 0.00 | 92 | 1013.5 |
| 20260902100503 | 71 | 0 | 0.0 | 0.0 | 0.00 | 0.00 | 0.00 | 92 | 1013.6 |
| 20260902100024 | 71 | 0 | 0.0 | 0.0 | 0.00 | 0.00 | 0.00 | 92 | 1013.5 |
| 20260902095503 | 71 | 0 | 0.0 | 0.0 | 0.00 | 0.00 | 0.00 | 92 | 1013.8 |
| 20260902095024 | 71 | 0 | 0.0 | 0.0 | 0.00 | 0.00 | 0.00 | 92 | 1014.1 |
| 20260902094503 | 71 | 0 | 0.0 | 0.0 | 0.00 | 0.00 | 0.00 | 92 | 1014.0 |
| 20260902094024 | 71 | 0 | 0.0 | 0.0 | 0.00 | 0.00 | 0.00 | 92 | 1014.0 |
| 20260902093524 | 72 | 0 | 0.0 | 0.0 | 0.00 | 0.00 | 0.00 | 92 | 1013.9 |
| 20260902093003 | 72 | 0 | 0.0 | 0.0 | 0.00 | 0.00 | 0.00 | 92 | 1014.1 |
| 20260902092503 | 72 | 0 | 0.0 | 0.0 | 0.00 | 0.00 | 0.00 | 92 | 1014.2 |
| 20260902092003 | 72 | 188 | 0.0 | 3.0 | 0.00 | 0.00 | 0.00 | 92 | 1014.3 |
| 20260902091503 | 72 | 188 | 0.0 | 3.0 | 0.00 | 0.00 | 0.00 | 92 | 1014.4 |
| 20260902091003 | 72 | 188 | 0.0 | 2.0 | 0.00 | 0.00 | 0.00 | 92 | 1014.3 |
| 20260902090503 | 72 | 188 | 0.0 | 2.0 | 0.00 | 0.00 | 0.00 | 93 | 1014.6 |
| 20260902090004 | 72 | 188 | 0.0 | 2.0 | 0.00 | 0.00 | 0.00 | 93 | 1014.4 |
| 20260902085503 | 72 | 0 | 0.0 | 0.0 | 0.00 | 0.00 | 0.00 | 93 | 1014.5 |
| 20260902085003 | 72 | 189 | 0.0 | 2.0 | 0.00 | 0.00 | 0.00 | 93 | 1014.6 |
| 20260902084524 | 72 | 189 | 0.0 | 3.0 | 0.00 | 0.00 | 0.00 | 93 | 1014.6 |
| 20260902084003 | 71 | 189 | 0.0 | 3.0 | 0.00 | 0.00 | 0.00 | 93 | 1014.6 |
| 20260902083503 | 71 | 0 | 0.0 | 0.0 | 0.00 | 0.00 | 0.00 | 93 | 1014.6 |
| 20260902083003 | 71 | 0 | 0.0 | 0.0 | 0.00 | 0.00 | 0.00 | 93 | 1014.7 |
| 20260902082503 | 71 | 0 | 0.0 | 0.0 | 0.00 | 0.00 | 0.00 | 93 | 1014.7 |
| 20260902082003 | 71 | 0 | 0.0 | 0.0 | 0.00 | 0.00 | 0.00 | 93 | 1014.9 |
| 20260902081503 | 72 | 0 | 0.0 | 0.0 | 0.00 | 0.00 | 0.00 | 93 | 1015.0 |
| 20260902081003 | 72 | 0 | 0.0 | 0.0 | 0.00 | 0.00 | 0.00 | 93 | 1015.0 |
| 20260902080503 | 71 | 0 | 0.0 | 0.0 | 0.00 | 0.00 | 0.00 | 93 | 1015.0 |
| 20260902080003 | 71 | 0 | 0.0 | 0.0 | 0.00 | 0.00 | 0.00 | 93 | 1015.1 |
| 20260902075503 | 71 | 0 | 0.0 | 0.0 | 0.00 | 0.00 | 0.00 | 93 | 1015.2 |
| 20260902075003 | 71 | 0 | 0.0 | 0.0 | 0.00 | 0.00 | 0.00 | 93 | 1015.2 |
| 20260902074503 | 71 | 0 | 0.0 | 0.0 | 0.00 | 0.00 | 0.00 | 93 | 1015.2 |
| 20260902074003 | 71 | 0 | 0.0 | 0.0 | 0.00 | 0.00 | 0.00 | 93 | 1015.1 |
| 20260902073503 | 71 | 0 | 0.0 | 0.0 | 0.00 | 0.00 | 0.00 | 93 | 1015.0 |
| 20260902073003 | 71 | 0 | 0.0 | 0.0 | 0.00 | 0.00 | 0.00 | 93 | 1015.0 |
| 20260902072503 | 71 | 0 | 0.0 | 0.0 | 0.00 | 0.00 | 0.00 | 93 | 1015.1 |
| 20260902072024 | 71 | 0 | 0.0 | 0.0 | 0.00 | 0.00 | 0.00 | 93 | 1015.1 |
| 20260902071503 | 71 | 0 | 0.0 | 0.0 | 0.00 | 0.00 | 0.00 | 93 | 1015.2 |
| 20260902071003 | 71 | 0 | 0.0 | 0.0 | 0.00 | 0.00 | 0.00 | 93 | 1015.3 |
| 20260902070503 | 71 | 0 | 0.0 | 0.0 | 0.00 | 0.00 | 0.00 | 93 | 1015.3 |
| 20260902070004 | 71 | 0 | 0.0 | 0.0 | 0.00 | 0.00 | 0.00 | 93 | 1015.3 |
| 20260902065503 | 71 | 0 | 0.0 | 0.0 | 0.00 | 0.00 | 0.00 | 93 | 1015.5 |
| 20260902065003 | 71 | 0 | 0.0 | 0.0 | 0.00 | 0.00 | 0.00 | 93 | 1015.3 |
| 20260902064524 | 71 | 0 | 0.0 | 0.0 | 0.00 | 0.00 | 0.00 | 93 | 1015.4 |
| 20260902064003 | 71 | 188 | 0.0 | 1.0 | 0.00 | 0.00 | 0.00 | 93 | 1015.3 |
| 20260902063503 | 70 | 189 | 0.0 | 3.0 | 0.00 | 0.00 | 0.00 | 93 | 1015.4 |
| 20260902063024 | 70 | 189 | 1.0 | 3.0 | 0.00 | 0.00 | 0.00 | 93 | 1015.2 |
| 20260902062524 | 70 | 189 | 1.0 | 3.0 | 0.00 | 0.00 | 0.00 | 93 | 1015.2 |
| 20260902062003 | 70 | 189 | 0.0 | 2.0 | 0.00 | 0.00 | 0.00 | 92 | 1015.4 |
| 20260902061524 | 70 | 189 | 0.0 | 2.0 | 0.00 | 0.00 | 0.00 | 92 | 1015.4 |
| 20260902061024 | 70 | 0 | 0.0 | 0.0 | 0.00 | 0.00 | 0.00 | 93 | 1015.5 |
| 20260902060503 | 70 | 0 | 0.0 | 0.0 | 0.00 | 0.00 | 0.00 | 93 | 1015.5 |
| 20260902060024 | 70 | 0 | 0.0 | 0.0 | 0.00 | 0.00 | 0.00 | 92 | 1015.4 |
| 20260902055503 | 70 | 0 | 0.0 | 0.0 | 0.00 | 0.00 | 0.00 | 92 | 1015.6 |
| 20260902055024 | 70 | 0 | 0.0 | 0.0 | 0.00 | 0.00 | 0.00 | 92 | 1015.5 |
| 20260902054503 | 69 | 0 | 0.0 | 0.0 | 0.00 | 0.00 | 0.00 | 92 | 1015.6 |
| 20260902054003 | 69 | 0 | 0.0 | 0.0 | 0.00 | 0.00 | 0.00 | 92 | 1015.5 |
| 20260902053524 | 69 | 0 | 0.0 | 0.0 | 0.00 | 0.00 | 0.00 | 92 | 1015.4 |
| 20260902053024 | 69 | 0 | 0.0 | 0.0 | 0.00 | 0.00 | 0.00 | 92 | 1015.3 |
| 20260902052503 | 69 | 0 | 0.0 | 0.0 | 0.00 | 0.00 | 0.00 | 92 | 1015.3 |
| 20260902052003 | 69 | 0 | 0.0 | 0.0 | 0.00 | 0.00 | 0.00 | 92 | 1015.3 |
| 20260902051503 | 69 | 0 | 0.0 | 0.0 | 0.00 | 0.00 | 0.00 | 92 | 1015.4 |
| 20260902051024 | 69 | 0 | 0.0 | 0.0 | 0.00 | 0.00 | 0.00 | 92 | 1015.4 |
| 20260902050503 | 69 | 0 | 0.0 | 0.0 | 0.00 | 0.00 | 0.00 | 92 | 1015.3 |
| 20260902050005 | 69 | 0 | 0.0 | 0.0 | 0.00 | 0.00 | 0.00 | 91 | 1015.3 |
| 20260902045524 | 69 | 0 | 0.0 | 0.0 | 0.00 | 0.00 | 0.00 | 92 | 1015.2 |
| 20260902045003 | 69 | 0 | 0.0 | 0.0 | 0.00 | 0.00 | 0.00 | 91 | 1015.3 |
| 20260902044524 | 69 | 0 | 0.0 | 0.0 | 0.00 | 0.00 | 0.00 | 91 | 1015.3 |
| 20260902044003 | 70 | 0 | 0.0 | 0.0 | 0.00 | 0.00 | 0.00 | 91 | 1015.4 |
| 20260902043524 | 69 | 0 | 0.0 | 0.0 | 0.00 | 0.00 | 0.00 | 91 | 1015.4 |
| 20260902043003 | 70 | 0 | 0.0 | 0.0 | 0.00 | 0.00 | 0.00 | 91 | 1015.3 |
| 20260902042503 | 70 | 0 | 0.0 | 0.0 | 0.00 | 0.00 | 0.00 | 91 | 1015.3 |
| 20260902042003 | 70 | 0 | 0.0 | 0.0 | 0.00 | 0.00 | 0.00 | 91 | 1015.1 |
| 20260902041503 | 70 | 0 | 0.0 | 0.0 | 0.00 | 0.00 | 0.00 | 91 | 1015.3 |
| 20260902041024 | 70 | 0 | 0.0 | 0.0 | 0.00 | 0.00 | 0.00 | 91 | 1015.2 |
| 20260902040503 | 70 | 0 | 0.0 | 0.0 | 0.00 | 0.00 | 0.00 | 91 | 1015.2 |
| 20260902040003 | 70 | 0 | 0.0 | 0.0 | 0.00 | 0.00 | 0.00 | 91 | 1015.2 |
| 20260902035524 | 70 | 0 | 0.0 | 0.0 | 0.00 | 0.01 | 0.00 | 91 | 1015.0 |
| 20260902035003 | 70 | 0 | 0.0 | 0.0 | 0.00 | 0.01 | 0.00 | 91 | 1015.0 |
| 20260902034503 | 71 | 0 | 0.0 | 0.0 | 0.00 | 0.01 | 0.00 | 91 | 1015.0 |
| 20260902034003 | 71 | 0 | 0.0 | 0.0 | 0.00 | 0.01 | 0.00 | 91 | 1015.0 |
| 20260902033503 | 70 | 0 | 0.0 | 0.0 | 0.00 | 0.01 | 0.00 | 91 | 1015.0 |
| 20260902033003 | 70 | 0 | 0.0 | 0.0 | 0.00 | 0.01 | 0.00 | 91 | 1015.0 |
| 20260902032503 | 71 | 0 | 0.0 | 0.0 | 0.00 | 0.01 | 0.00 | 91 | 1014.9 |
| 20260902032003 | 71 | 0 | 0.0 | 0.0 | 0.00 | 0.01 | 0.00 | 91 | 1015.0 |
| 20260902031503 | 71 | 0 | 0.0 | 0.0 | 0.00 | 0.01 | 0.00 | 91 | 1014.9 |
| 20260902031003 | 71 | 0 | 0.0 | 0.0 | 0.00 | 0.01 | 0.00 | 90 | 1015.0 |
| 20260902030503 | 71 | 0 | 0.0 | 0.0 | 0.00 | 0.01 | 0.00 | 90 | 1015.0 |
| 20260902030003 | 71 | 0 | 0.0 | 0.0 | 0.00 | 0.01 | 0.00 | 91 | 1015.0 |
| 20260902025503 | 71 | 0 | 0.0 | 0.0 | 0.00 | 0.01 | 0.00 | 90 | 1015.0 |
| 20260902025003 | 71 | 0 | 0.0 | 0.0 | 0.00 | 0.01 | 0.00 | 90 | 1015.0 |
| 20260902024524 | 71 | 0 | 0.0 | 0.0 | 0.00 | 0.01 | 0.00 | 90 | 1014.9 |
| 20260902024003 | 71 | 0 | 0.0 | 0.0 | 0.00 | 0.01 | 0.00 | 90 | 1014.9 |
| 20260902023503 | 71 | 0 | 0.0 | 0.0 | 0.00 | 0.01 | 0.00 | 90 | 1015.0 |
| 20260902023003 | 71 | 0 | 0.0 | 0.0 | 0.00 | 0.01 | 0.00 | 90 | 1015.0 |
| 20260902022503 | 71 | 0 | 0.0 | 0.0 | 0.00 | 0.01 | 0.00 | 89 | 1015.0 |
| 20260902022003 | 72 | 0 | 0.0 | 0.0 | 0.00 | 0.01 | 0.00 | 89 | 1015.0 |
| 20260902021503 | 72 | 0 | 0.0 | 0.0 | 0.00 | 0.01 | 0.00 | 89 | 1015.2 |
| 20260902021003 | 72 | 0 | 0.0 | 0.0 | 0.00 | 0.01 | 0.00 | 89 | 1015.1 |
| 20260902020503 | 72 | 0 | 0.0 | 0.0 | 0.00 | 0.01 | 0.00 | 89 | 1015.2 |
| 20260902020024 | 72 | 0 | 0.0 | 0.0 | 0.00 | 0.01 | 0.00 | 89 | 1015.2 |
| 20260902015524 | 72 | 0 | 0.0 | 0.0 | 0.00 | 0.01 | 0.00 | 88 | 1015.3 |
| 20260902015003 | 72 | 0 | 0.0 | 0.0 | 0.00 | 0.01 | 0.00 | 88 | 1015.0 |
| 20260902014503 | 73 | 0 | 0.0 | 0.0 | 0.00 | 0.01 | 0.00 | 88 | 1015.1 |
| 20260902014003 | 73 | 0 | 0.0 | 0.0 | 0.00 | 0.01 | 0.00 | 88 | 1015.2 |
| 20260902013503 | 73 | 0 | 0.0 | 0.0 | 0.00 | 0.01 | 0.00 | 87 | 1015.1 |
| 20260902013024 | 73 | 0 | 0.0 | 0.0 | 0.00 | 0.01 | 0.00 | 87 | 1015.1 |
| 20260902012503 | 73 | 0 | 0.0 | 0.0 | 0.00 | 0.01 | 0.00 | 87 | 1015.1 |
| 20260902012003 | 73 | 0 | 0.0 | 0.0 | 0.00 | 0.01 | 0.00 | 87 | 1015.1 |
| 20260902011503 | 74 | 0 | 0.0 | 0.0 | 0.00 | 0.01 | 0.00 | 86 | 1015.1 |
| 20260902011003 | 74 | 0 | 0.0 | 0.0 | 0.00 | 0.01 | 0.00 | 86 | 1015.0 |
| 20260902010503 | 74 | 0 | 0.0 | 0.0 | 0.00 | 0.01 | 0.00 | 86 | 1014.9 |
| 20260902010024 | 74 | 0 | 0.0 | 0.0 | 0.00 | 0.01 | 0.00 | 86 | 1014.8 |
| 20260902005503 | 74 | 0 | 0.0 | 0.0 | 0.00 | 0.01 | 0.00 | 85 | 1014.7 |
| 20260902005003 | 75 | 0 | 0.0 | 0.0 | 0.00 | 0.01 | 0.00 | 85 | 1014.7 |
| 20260902004503 | 75 | 0 | 0.0 | 0.0 | 0.00 | 0.01 | 0.00 | 84 | 1014.6 |
| 20260902004003 | 75 | 0 | 0.0 | 0.0 | 0.00 | 0.01 | 0.00 | 84 | 1014.6 |
| 20260902003524 | 75 | 0 | 0.0 | 0.0 | 0.00 | 0.01 | 0.00 | 84 | 1014.6 |
| 20260902003003 | 76 | 0 | 0.0 | 0.0 | 0.00 | 0.01 | 0.00 | 83 | 1014.4 |
| 20260902002503 | 76 | 0 | 0.0 | 0.0 | 0.00 | 0.01 | 0.00 | 83 | 1014.4 |
| 20260902002003 | 76 | 0 | 0.0 | 0.0 | 0.00 | 0.01 | 0.00 | 82 | 1014.3 |
| 20260902001503 | 76 | 190 | 0.0 | 2.0 | 0.00 | 0.01 | 0.00 | 82 | 1014.3 |
| 20260902001003 | 77 | 190 | 0.0 | 2.0 | 0.00 | 0.01 | 0.00 | 82 | 1014.4 |
| 20260902000503 | 77 | 190 | 0.0 | 2.0 | 0.00 | 0.01 | 0.00 | 81 | 1014.3 |
| 20260902000003 | 77 | 190 | 0.0 | 2.0 | 0.00 | 0.01 | 0.00 | 81 | 1014.1 |
| 20260901235503 | 77 | 190 | 1.0 | 4.0 | 0.00 | 0.01 | 0.00 | 80 | 1014.2 |
| 20260901235003 | 77 | 189 | 1.0 | 5.0 | 0.00 | 0.01 | 0.00 | 80 | 1014.1 |
| 20260901234524 | 78 | 195 | 2.0 | 5.0 | 0.00 | 0.01 | 0.00 | 80 | 1014.1 |
| 20260901234003 | 78 | 201 | 1.0 | 4.0 | 0.00 | 0.01 | 0.00 | 79 | 1014.2 |
| 20260901233503 | 79 | 199 | 1.0 | 3.0 | 0.00 | 0.01 | 0.00 | 79 | 1014.1 |
| 20260901233003 | 79 | 198 | 1.0 | 3.0 | 0.00 | 0.01 | 0.00 | 78 | 1014.2 |
| 20260901232524 | 79 | 198 | 1.0 | 3.0 | 0.00 | 0.01 | 0.00 | 77 | 1014.2 |
| 20260901232003 | 80 | 199 | 1.0 | 3.0 | 0.00 | 0.01 | 0.00 | 77 | 1014.4 |
| 20260901231503 | 80 | 221 | 1.0 | 4.0 | 0.00 | 0.01 | 0.00 | 76 | 1014.4 |
| 20260901231003 | 80 | 245 | 2.0 | 4.0 | 0.00 | 0.01 | 0.00 | 76 | 1014.4 |
| 20260901230503 | 80 | 252 | 1.0 | 3.0 | 0.00 | 0.01 | 0.00 | 75 | 1014.4 |
| 20260901230024 | 81 | 250 | 2.0 | 7.0 | 0.00 | 0.01 | 0.00 | 75 | 1014.5 |
| 20260901225525 | 81 | 250 | 2.0 | 7.0 | 0.00 | 0.01 | 0.00 | 75 | 1014.5 |
| 20260901225003 | 81 | 250 | 1.0 | 3.0 | 0.00 | 0.01 | 0.00 | 75 | 1014.4 |
| 20260901224503 | 81 | 235 | 2.0 | 7.0 | 0.00 | 0.01 | 0.00 | 75 | 1014.5 |
| 20260901224003 | 81 | 218 | 3.0 | 7.0 | 0.00 | 0.01 | 0.00 | 75 | 1014.5 |
| 20260901223503 | 81 | 213 | 3.0 | 7.0 | 0.00 | 0.01 | 0.00 | 75 | 1014.4 |
| 20260901223003 | 81 | 235 | 3.0 | 7.0 | 0.00 | 0.01 | 0.00 | 74 | 1014.5 |
| 20260901222504 | 81 | 244 | 3.0 | 8.0 | 0.00 | 0.01 | 0.00 | 74 | 1014.5 |
| 20260901222003 | 81 | 236 | 3.0 | 8.0 | 0.00 | 0.01 | 0.00 | 74 | 1014.6 |
| 20260901221503 | 81 | 235 | 4.0 | 8.0 | 0.00 | 0.01 | 0.00 | 74 | 1014.6 |
| 20260901221003 | 81 | 241 | 4.0 | 12.0 | 0.00 | 0.01 | 0.00 | 74 | 1014.6 |
| 20260901220503 | 81 | 235 | 3.0 | 12.0 | 0.00 | 0.01 | 0.00 | 74 | 1014.6 |
| 20260901220003 | 81 | 224 | 3.0 | 10.0 | 0.00 | 0.01 | 0.00 | 74 | 1014.6 |
| 20260901215503 | 82 | 231 | 4.0 | 10.0 | 0.00 | 0.01 | 0.00 | 74 | 1014.6 |
| 20260901215003 | 82 | 233 | 4.0 | 9.0 | 0.00 | 0.01 | 0.00 | 74 | 1014.4 |
| 20260901214503 | 82 | 229 | 3.0 | 9.0 | 0.00 | 0.01 | 0.00 | 74 | 1014.5 |
| 20260901214003 | 82 | 224 | 3.0 | 10.0 | 0.00 | 0.01 | 0.00 | 74 | 1014.4 |
| 20260901213524 | 82 | 214 | 3.0 | 10.0 | 0.00 | 0.01 | 0.00 | 74 | 1014.4 |
| 20260901213003 | 82 | 210 | 3.0 | 7.0 | 0.00 | 0.01 | 0.00 | 74 | 1014.2 |
| 20260901212503 | 82 | 233 | 3.0 | 8.0 | 0.00 | 0.01 | 0.00 | 74 | 1014.5 |
| 20260901212003 | 82 | 245 | 4.0 | 10.0 | 0.00 | 0.01 | 0.00 | 74 | 1014.5 |
| 20260901211524 | 82 | 236 | 4.0 | 10.0 | 0.00 | 0.01 | 0.00 | 73 | 1014.6 |
| 20260901211003 | 82 | 226 | 3.0 | 8.0 | 0.00 | 0.01 | 0.00 | 74 | 1014.6 |
| 20260901210503 | 82 | 218 | 3.0 | 8.0 | 0.00 | 0.01 | 0.00 | 74 | 1014.6 |
| 20260901210003 | 82 | 215 | 3.0 | 11.0 | 0.00 | 0.01 | 0.00 | 74 | 1014.5 |
| 20260901205503 | 82 | 229 | 4.0 | 12.0 | 0.00 | 0.01 | 0.00 | 74 | 1014.4 |
| 20260901205024 | 82 | 242 | 4.0 | 12.0 | 0.00 | 0.01 | 0.00 | 74 | 1014.5 |
| 20260901204503 | 82 | 237 | 5.0 | 11.0 | 0.00 | 0.01 | 0.00 | 74 | 1014.4 |
| 20260901204024 | 82 | 222 | 5.0 | 11.0 | 0.00 | 0.01 | 0.00 | 74 | 1014.4 |
| 20260901203503 | 82 | 216 | 5.0 | 10.0 | 0.00 | 0.01 | 0.00 | 74 | 1014.5 |
| 20260901203003 | 82 | 217 | 5.0 | 11.0 | 0.00 | 0.01 | 0.00 | 74 | 1014.6 |
| 20260901202503 | 82 | 222 | 4.0 | 11.0 | 0.00 | 0.01 | 0.00 | 74 | 1014.6 |
| 20260901202024 | 82 | 216 | 4.0 | 10.0 | 0.00 | 0.01 | 0.00 | 74 | 1014.6 |
| 20260901201503 | 82 | 216 | 4.0 | 10.0 | 0.00 | 0.01 | 0.00 | 74 | 1014.7 |
| 20260901201003 | 82 | 218 | 4.0 | 10.0 | 0.00 | 0.01 | 0.00 | 75 | 1014.7 |
| 20260901200503 | 81 | 212 | 3.0 | 9.0 | 0.00 | 0.01 | 0.00 | 75 | 1014.7 |
| 20260901200024 | 81 | 216 | 3.0 | 9.0 | 0.00 | 0.02 | 0.00 | 76 | 1014.7 |
| 20260901195503 | 81 | 212 | 3.0 | 8.0 | 0.00 | 0.02 | 0.00 | 76 | 1014.5 |
| 20260901195003 | 81 | 219 | 4.0 | 9.0 | 0.00 | 0.02 | 0.00 | 76 | 1014.6 |
| 20260901194503 | 81 | 226 | 4.0 | 9.0 | 0.00 | 0.03 | 0.00 | 76 | 1014.7 |
| 20260901194003 | 81 | 217 | 3.0 | 8.0 | 0.00 | 0.03 | 0.00 | 76 | 1014.7 |
| 20260901193503 | 81 | 216 | 3.0 | 9.0 | 0.00 | 0.03 | 0.00 | 76 | 1014.6 |
| 20260901193003 | 81 | 204 | 4.0 | 10.0 | 0.00 | 0.04 | 0.00 | 76 | 1014.5 |
| 20260901192503 | 81 | 194 | 4.0 | 10.0 | 0.00 | 0.04 | 0.00 | 76 | 1014.5 |
| 20260901192003 | 81 | 200 | 5.0 | 12.0 | 0.00 | 0.04 | 0.00 | 75 | 1014.5 |
| 20260901191524 | 81 | 207 | 5.0 | 12.0 | 0.00 | 0.04 | 0.00 | 75 | 1014.6 |
| 20260901191003 | 81 | 220 | 4.0 | 12.0 | 0.00 | 0.05 | 0.00 | 76 | 1014.6 |
| 20260901190503 | 81 | 218 | 4.0 | 8.0 | 0.00 | 0.05 | 0.00 | 75 | 1014.7 |
| 20260901190003 | 81 | 215 | 5.0 | 15.0 | 0.00 | 0.05 | 0.00 | 75 | 1014.7 |
| 20260901185503 | 82 | 218 | 5.0 | 15.0 | 0.00 | 0.05 | 0.00 | 74 | 1014.7 |
| 20260901185024 | 82 | 216 | 5.0 | 13.0 | 0.00 | 0.05 | 0.00 | 74 | 1014.7 |
| 20260901184503 | 81 | 214 | 4.0 | 13.0 | 0.00 | 0.06 | 0.00 | 75 | 1014.7 |
| 20260901184003 | 82 | 214 | 4.0 | 11.0 | 0.00 | 0.06 | 0.00 | 74 | 1014.9 |
| 20260901183504 | 82 | 218 | 4.0 | 11.0 | 0.00 | 0.08 | 0.00 | 74 | 1014.8 |
| 20260901183003 | 82 | 226 | 5.0 | 11.0 | 0.00 | 0.09 | 0.00 | 75 | 1014.8 |
| 20260901182503 | 81 | 221 | 6.0 | 15.0 | 0.00 | 0.09 | 0.00 | 74 | 1014.9 |
| 20260901182003 | 81 | 218 | 6.0 | 15.0 | 0.00 | 0.09 | 0.00 | 73 | 1014.8 |
| 20260901181524 | 82 | 215 | 5.0 | 10.0 | 0.00 | 0.09 | 0.00 | 75 | 1014.6 |
| 20260901181003 | 82 | 216 | 4.0 | 12.0 | 0.00 | 0.09 | 0.00 | 74 | 1014.7 |
| 20260901180503 | 81 | 240 | 5.0 | 12.0 | 0.00 | 0.10 | 0.00 | 74 | 1014.7 |
| 20260901180003 | 81 | 256 | 5.0 | 12.0 | 0.00 | 0.11 | 0.00 | 75 | 1014.6 |
| 20260901175503 | 81 | 256 | 5.0 | 12.0 | 0.00 | 0.11 | 0.00 | 74 | 1014.7 |
| 20260901175003 | 82 | 248 | 5.0 | 15.0 | 0.00 | 0.11 | 0.00 | 74 | 1014.6 |
| 20260901174503 | 82 | 245 | 5.0 | 15.0 | 0.00 | 0.11 | 0.00 | 73 | 1014.5 |
| 20260901174003 | 82 | 239 | 4.0 | 11.0 | 0.00 | 0.11 | 0.00 | 74 | 1014.5 |
| 20260901173503 | 82 | 234 | 4.0 | 11.0 | 0.00 | 0.12 | 0.00 | 75 | 1014.4 |
| 20260901173003 | 82 | 226 | 4.0 | 11.0 | 0.00 | 0.12 | 0.00 | 74 | 1014.3 |
| 20260901172503 | 81 | 214 | 4.0 | 9.0 | 0.00 | 0.12 | 0.00 | 75 | 1014.1 |
| 20260901172003 | 81 | 214 | 3.0 | 8.0 | 0.00 | 0.12 | 0.00 | 76 | 1014.2 |
| 20260901171503 | 80 | 244 | 4.0 | 12.0 | 0.00 | 0.12 | 0.00 | 76 | 1014.1 |
| 20260901171024 | 80 | 260 | 5.0 | 12.0 | 0.00 | 0.12 | 0.00 | 76 | 1014.1 |
| 20260901170503 | 80 | 252 | 4.0 | 10.0 | 0.00 | 0.12 | 0.00 | 76 | 1014.0 |
| 20260901170003 | 80 | 226 | 4.0 | 8.0 | 0.00 | 0.12 | 0.00 | 76 | 1014.0 |
| 20260901165503 | 80 | 234 | 4.0 | 9.0 | 0.00 | 0.12 | 0.00 | 77 | 1014.1 |
| 20260901165003 | 80 | 239 | 4.0 | 9.0 | 0.00 | 0.12 | 0.00 | 77 | 1014.1 |
| 20260901164503 | 80 | 216 | 4.0 | 9.0 | 0.00 | 0.12 | 0.00 | 77 | 1014.2 |
| 20260901164003 | 80 | 212 | 3.0 | 8.0 | 0.00 | 0.12 | 0.00 | 78 | 1014.2 |
| 20260901163524 | 80 | 198 | 4.0 | 11.0 | 0.00 | 0.12 | 0.00 | 77 | 1014.2 |
| 20260901163024 | 80 | 200 | 5.0 | 11.0 | 0.00 | 0.12 | 0.00 | 76 | 1014.2 |
| 20260901162503 | 80 | 223 | 4.0 | 9.0 | 0.00 | 0.12 | 0.00 | 77 | 1014.3 |
| 20260901162003 | 80 | 222 | 4.0 | 10.0 | 0.00 | 0.12 | 0.00 | 79 | 1014.2 |
| 20260901161503 | 79 | 223 | 4.0 | 10.0 | 0.00 | 0.12 | 0.00 | 78 | 1014.2 |
| 20260901161003 | 79 | 212 | 4.0 | 10.0 | 0.00 | 0.12 | 0.00 | 79 | 1014.2 |
| 20260901160503 | 79 | 212 | 3.0 | 9.0 | 0.00 | 0.12 | 0.00 | 80 | 1014.2 |
| 20260901160003 | 78 | 226 | 4.0 | 9.0 | 0.00 | 0.12 | 0.00 | 81 | 1014.0 |
| 20260901155503 | 78 | 230 | 3.0 | 8.0 | 0.00 | 0.12 | 0.00 | 80 | 1014.1 |
| 20260901155024 | 78 | 233 | 3.0 | 9.0 | 0.00 | 0.12 | 0.00 | 81 | 1014.1 |
| 20260901154503 | 78 | 241 | 4.0 | 9.0 | 0.00 | 0.12 | 0.00 | 81 | 1014.0 |
| 20260901154003 | 78 | 246 | 4.0 | 9.0 | 0.00 | 0.12 | 0.00 | 80 | 1014.0 |
| 20260901153503 | 78 | 247 | 3.0 | 9.0 | 0.00 | 0.12 | 0.00 | 80 | 1014.0 |
| 20260901153003 | 78 | 247 | 4.0 | 9.0 | 0.00 | 0.12 | 0.00 | 81 | 1014.0 |
| 20260901152503 | 78 | 247 | 4.0 | 9.0 | 0.00 | 0.12 | 0.00 | 81 | 1013.9 |
| 20260901152003 | 78 | 234 | 3.0 | 9.0 | 0.00 | 0.12 | 0.00 | 82 | 1013.8 |
| 20260901151503 | 78 | 222 | 3.0 | 10.0 | 0.00 | 0.12 | 0.00 | 82 | 1013.7 |
| 20260901151003 | 78 | 235 | 4.0 | 10.0 | 0.00 | 0.12 | 0.00 | 82 | 1013.9 |
| 20260901150503 | 78 | 246 | 4.0 | 9.0 | 0.00 | 0.13 | 0.00 | 82 | 1014.0 |
| 20260901150003 | 78 | 220 | 4.0 | 9.0 | 0.00 | 0.13 | 0.00 | 82 | 1014.0 |
| 20260901145503 | 78 | 195 | 4.0 | 11.0 | 0.00 | 0.13 | 0.00 | 82 | 1013.9 |
| 20260901145003 | 78 | 204 | 3.0 | 11.0 | 0.00 | 0.14 | 0.00 | 82 | 1013.8 |
| 20260901144503 | 78 | 200 | 4.0 | 12.0 | 0.00 | 0.16 | 0.00 | 82 | 1013.8 |
| 20260901144024 | 78 | 205 | 3.0 | 12.0 | 0.00 | 0.18 | 0.00 | 82 | 1013.8 |
| 20260901143503 | 78 | 227 | 2.0 | 6.0 | 0.00 | 0.20 | 0.00 | 84 | 1013.8 |
| 20260901143003 | 77 | 226 | 2.0 | 9.0 | 0.00 | 0.25 | 0.00 | 84 | 1013.9 |
| 20260901142503 | 77 | 223 | 3.0 | 9.0 | 0.00 | 0.35 | 0.00 | 84 | 1014.0 |
| 20260901142003 | 77 | 220 | 2.0 | 5.0 | 0.00 | 0.42 | 0.00 | 84 | 1014.0 |
| 20260901141524 | 77 | 212 | 2.0 | 6.0 | 0.00 | 0.43 | 0.00 | 85 | 1014.0 |
| 20260901141024 | 76 | 216 | 3.0 | 6.0 | 0.00 | 0.43 | 0.00 | 85 | 1014.1 |
| 20260901140503 | 76 | 238 | 3.0 | 10.0 | 0.00 | 0.45 | 0.00 | 86 | 1014.0 |
| 20260901140003 | 76 | 232 | 3.0 | 10.0 | 0.00 | 0.48 | 0.00 | 85 | 1014.1 |
| 20260901135503 | 76 | 218 | 3.0 | 7.0 | 0.00 | 0.48 | 0.00 | 86 | 1014.0 |
| 20260901135003 | 76 | 220 | 3.0 | 7.0 | 0.00 | 0.49 | 0.00 | 86 | 1014.0 |
| 20260901134503 | 76 | 213 | 2.0 | 7.0 | 0.00 | 0.52 | 0.00 | 86 | 1014.0 |
| 20260901134003 | 76 | 222 | 3.0 | 8.0 | 0.00 | 0.54 | 0.00 | 86 | 1014.0 |
| 20260901133503 | 76 | 240 | 3.0 | 8.0 | 0.00 | 0.55 | 0.00 | 87 | 1014.0 |
| 20260901133003 | 76 | 248 | 3.0 | 7.0 | 0.00 | 0.55 | 0.00 | 87 | 1014.0 |
| 20260901132524 | 76 | 252 | 3.0 | 5.0 | 0.00 | 0.59 | 0.00 | 87 | 1014.2 |
| 20260901132003 | 76 | 246 | 3.0 | 10.0 | 0.00 | 0.63 | 0.00 | 87 | 1014.2 |
| 20260901131503 | 75 | 230 | 3.0 | 10.0 | 0.00 | 0.65 | 0.00 | 87 | 1014.3 |
| 20260901131003 | 75 | 226 | 3.0 | 8.0 | 0.00 | 0.65 | 0.00 | 87 | 1014.3 |
| 20260901130503 | 75 | 231 | 2.0 | 8.0 | 0.00 | 0.66 | 0.00 | 87 | 1014.3 |
| 20260901130003 | 75 | 229 | 3.0 | 7.0 | 0.00 | 0.67 | 0.00 | 87 | 1014.4 |
| 20260901125503 | 75 | 222 | 3.0 | 7.0 | 0.00 | 0.67 | 0.00 | 87 | 1014.3 |
| 20260901125003 | 75 | 214 | 2.0 | 6.0 | 0.00 | 0.67 | 0.00 | 87 | 1014.4 |
| 20260901124524 | 75 | 226 | 3.0 | 9.0 | 0.00 | 0.67 | 0.00 | 87 | 1014.3 |
| 20260901124003 | 75 | 217 | 3.0 | 9.0 | 0.00 | 0.67 | 0.00 | 87 | 1014.3 |
| 20260901123503 | 75 | 211 | 2.0 | 9.0 | 0.00 | 0.67 | 0.00 | 87 | 1014.2 |
| 20260901123024 | 75 | 226 | 3.0 | 9.0 | 0.00 | 0.67 | 0.00 | 87 | 1014.1 |
| 20260901122503 | 75 | 223 | 3.0 | 8.0 | 0.00 | 0.67 | 0.00 | 87 | 1014.1 |
| 20260901122003 | 75 | 224 | 3.0 | 8.0 | 0.00 | 0.67 | 0.00 | 87 | 1014.0 |
| 20260901121503 | 75 | 229 | 3.0 | 10.0 | 0.00 | 0.67 | 0.00 | 87 | 1014.0 |
| 20260901121003 | 75 | 218 | 3.0 | 10.0 | 0.00 | 0.67 | 0.00 | 87 | 1014.1 |
| 20260901120524 | 75 | 209 | 3.0 | 10.0 | 0.00 | 0.67 | 0.00 | 87 | 1013.8 |
| 20260901120003 | 75 | 218 | 3.0 | 10.0 | 0.00 | 0.67 | 0.00 | 86 | 1013.9 |
| 20260901115503 | 75 | 226 | 3.0 | 10.0 | 0.00 | 0.68 | 0.00 | 86 | 1014.0 |
| 20260901115024 | 75 | 230 | 3.0 | 9.0 | 0.00 | 0.68 | 0.00 | 86 | 1013.8 |
| 20260901114503 | 75 | 228 | 3.0 | 8.0 | 0.00 | 0.68 | 0.00 | 86 | 1013.8 |
| 20260901114003 | 75 | 225 | 3.0 | 11.0 | 0.00 | 0.68 | 0.00 | 85 | 1013.8 |
| 20260901113503 | 75 | 240 | 3.0 | 11.0 | 0.00 | 0.68 | 0.00 | 85 | 1013.9 |
| 20260901113024 | 75 | 240 | 3.0 | 9.0 | 0.00 | 0.68 | 0.00 | 84 | 1013.8 |
| 20260901112503 | 75 | 232 | 3.0 | 10.0 | 0.00 | 0.68 | 0.00 | 84 | 1013.8 |
| 20260901112003 | 75 | 240 | 3.0 | 10.0 | 0.00 | 0.68 | 0.00 | 83 | 1013.8 |
| 20260901111503 | 75 | 235 | 3.0 | 8.0 | 0.00 | 0.68 | 0.00 | 83 | 1013.7 |
| 20260901111003 | 75 | 236 | 3.0 | 17.0 | 0.00 | 0.68 | 0.00 | 83 | 1013.7 |